sat.trackr.live / text

‹ back to catalog

STARLINK-3323

NORAD 50804 · 2022-001B

PAYLOAD ACTIVE UNKNOWN

§ Identity

Operator
Country
US
Launch date
2022-01-06
Launch site
AFETR
Launch vehicle
Mass (kg)
RCS (m²)

Purposes: comms

External: N2YO · Heavens-Above · Gunter

§ Orbital elements

Epoch: 2026-09-19T06:48:32.512896Z

Period
93.85 min
Inclination
53.1614°
Eccentricity
0.0001208
Mean motion
15.34428351 rev/d
Perigee alt
461.8 km
Apogee alt
463.4 km
Semi-major
6,840.8 km
B*
-1.9767e-4
RAAN
359.3103°
Arg perigee
88.9458°
Mean anomaly
271.1683°
Rev number
25,991

§ Raw data

STARLINK-33231 50804U 22001B   26262.28370964 -.00007055  00000+0 -19767-3 0  99902 50804  53.1614 359.3103 0001208  88.9458 271.1683 15.34428351259916

JSON: /api/v1/satellites/50804 · /tle

For live sub-satellite position, see the globe view (requires WebGL).

§ Visibility from observer

Set your observer location to see the next 7 days of passes ≥ 10°. The values pass through the URL so the page stays shareable.

No JS? Fill the form by hand. The geolocation button needs JavaScript.